Current weather by "City, St" or "zip code"  
 

Current Conditions: Wink, Winkler County Airport, TX

Fair


69.0 F

Last Updated on May 21 2022, 4:53 am CDT
Humidity: 12%
Wind Speed: W 11.5 mph
Barometer 29.75 in
Dewpoint: 15.1 F
Visibility: 10.00 mi
Precip: --
Heat Index: NA
Wind Chill: NA
Current conditions at:

Wink, Winkler County Airport, TX (KINK)

Lat: 31.77972 Lon: 103.20139

Local Radar Image active severe weather and emergency alerts image image weather storm and storm spotter reports image weather observation monitoring service image
Local
Radar
Active
Alerts
Storm Reports Obs
Monitoring

Sign-up For Email & Text Message Weather Alert Notification Services



Advertise Here

Observation History for Wink, Winkler County Airport, TX


Time Wind
(mph)
Vis
(mi)
Weather Precip (in) Temperature (F) Relative
Humidity
Wind
Chill
(F)
Heat
Index
(F)
Pressure
Air Dwpt altimeter
(in)
sea level
(mb)
Rmks
4:53 am CDT W 11.5 10.00 Fair -- 69.0 15.1 12% NA NA 29.75 1002.4
3:53 am CDT SW 11.5 10.00 Fair -- 73.0 14.0 10% NA NA 29.73 1001.6
2:53 am CDT SW 9.2 10.00 Fair -- 70.0 12.9 11% NA NA 29.73 1001.4
1:53 am CDT W 10.4 10.00 Fair -- 71.0 12.9 10% NA NA 29.72 1001.2
12:53 am CDT W 8.1 10.00 Fair -- 73.0 14.0 10% NA NA 29.71 1000.8
11:53 pm CDT W 9.2 10.00 Fair -- 77.0 14.0 9% NA NA 29.69 1000.3
10:53 pm CDT SW 9.2 10.00 Fair -- 81.0 12.9 7% NA 79 29.67 999.4
9:53 pm CDT W 8.1 10.00 Fair -- 83.0 12.9 7% NA 80 29.64 998.6
8:53 pm CDT SW 10.4 10.00 Fair -- 89.0 12.9 6% NA 85 29.62 997.9
7:53 pm CDT W 17.3 10.00 Fair -- 95.0 12.9 5% NA 90 29.60 997.2
6:53 pm CDT SW 18.4 G 29.9 10.00 Fair -- 97.0 14.0 5% NA 92 29.60 997.4
4:53 pm CDT W 23.0 10.00 Fair and Breezy -- 96.0 21.9 7% NA 91 29.62 997.9
3:53 pm CDT SW 15.0 G 23.0 10.00 Fair -- 96.0 23.0 7% NA 91 29.63 997.9
2:53 pm CDT SW 21.9 G 33.4 10.00 Fair and Breezy -- 97.0 23.0 7% NA 92 29.64 998.2
1:53 pm CDT W 19.6 G 33.4 10.00 Fair -- 95.0 23.0 7% NA 90 29.65 998.7
12:53 pm CDT W 15.0 G 27.6 10.00 Fair -- 94.0 18.0 6% NA 89 29.67 999.3
10:53 am CDT W 12.7 10.00 Fair -- 88.0 19.0 8% NA 84 29.67 999.3
9:53 am CDT W 19.6 10.00 Fair -- 85.0 21.0 9% NA 82 29.67 999.3
8:53 am CDT NW 3.5 10.00 Fair -- 76.0 23.0 14% NA NA 29.66 999.2
7:53 am CDT SW 8.1 10.00 Fair -- 71.0 23.0 16% NA NA 29.64 998.3
6:53 am CDT S 6.9 10.00 Fair -- 61.0 15.1 17% 60 NA 29.62 997.9
5:53 am CDT S 6.9 10.00 Fair -- 62.0 14.0 15% 62 NA 29.60 997.1

Regional Weather Observation


Pecos, Pecos Municipal Airport, TX (KPEQ)

Fair
70.0 F

Hobbs / Lea County, NM (KHOB)

Fair
66.0 F

Odessa, Odessa-Schlemeyer Field, TX (KODO)

Fair
78.0 F

Andrews County Airport, TX (KE11)

Fair
65.0 F

Carlsbad, Cavern City Air Terminal Airport, NM (KCNM)

Fair
71.0 F

Seminole, Gaines County Airport, TX (KGNC)

Fair
63.0 F

Advertise Here


Advertise Here